GW2960 Weather Reports


time (UTC)temp
C
wind
direction
speed
KPH
gust
KPH
rain 1hr
cm
rain 24hr
cm
rain mn
cm
humidity
%
barometer
mb
20260505090120 24 70 4.8 16.1 0.00 1.24 0.00 88 1012.7
20260505084612 24 51 8.0 17.7 0.00 1.27 0.00 88 1012.8
20260505083023 24 96 11.3 17.7 0.00 1.27 0.00 87 1012.5
20260505081557 24 80 11.3 19.3 0.00 1.27 0.00 87 1012.8
20260505080025 24 77 9.7 20.9 0.00 1.27 0.00 87 1012.8
20260505074518 24 59 8.0 20.9 0.00 2.16 0.00 87 1013.1
20260505073051 24 46 6.4 22.5 0.00 2.16 0.00 87 1013.2
20260505071506 24 109 8.0 22.5 0.00 2.16 0.00 88 1013.3
20260505070039 24 52 8.0 20.9 0.00 2.16 0.00 89 1013.2
20260505064535 24 17 8.0 17.7 0.00 2.16 0.00 89 1013.3
20260505063101 24 82 6.4 17.7 0.00 2.16 0.00 89 1013.7
20260505061530 24 65 4.8 14.5 0.00 2.16 0.00 89 1013.9
20260505054557 23 49 6.4 19.3 0.00 2.16 0.00 88 1013.7
20260505053022 24 78 8.0 19.3 0.00 2.16 0.00 88 1014.2
20260505051549 23 48 9.7 17.7 0.00 2.16 0.00 88 1014.3
20260505041507 24 71 9.7 24.1 0.00 2.16 0.00 89 1014.8
20260505040033 24 105 11.3 22.5 0.00 2.16 0.00 89 1014.7
20260505034523 24 64 8.0 22.5 0.00 2.16 2.16 89 1014.9
20260505033055 24 46 8.0 29.0 0.00 2.16 2.16 89 1014.7
20260505031525 24 72 16.1 27.4 0.00 2.16 2.16 88 1014.6
20260505030114 24 81 11.3 24.1 0.00 2.16 2.16 87 1014.6
20260505024504 24 85 12.9 20.9 0.00 2.16 2.16 87 1014.8
20260505023027 24 92 9.7 24.1 0.05 2.16 2.16 87 1014.7
20260505021553 23 84 16.1 29.0 0.20 2.16 2.16 87 1014.6
20260505020032 23 59 14.5 29.0 0.23 2.16 2.16 89 1014.9
20260505014531 24 66 12.9 27.4 0.23 2.16 2.16 90 1014.6
20260505013049 23 76 8.0 27.4 0.15 2.08 2.11 90 1014.6
20260505011506 24 102 12.9 24.1 0.00 1.93 1.93 88 1014.5
20260505010041 25 122 8.0 24.1 0.00 1.93 1.93 87 1014.4
20260505004547 25 109 11.3 27.4 0.00 1.93 1.93 85 1014.1
20260505003009 25 98 12.9 25.7 0.00 1.93 1.93 80 1014.0
20260505001527 25 81 14.5 25.7 0.00 1.93 1.93 79 1013.9
20260505000059 25 71 12.9 27.4 0.00 1.93 1.93 79 1014.0
20260504234551 25 126 14.5 32.2 0.00 2.01 1.93 78 1013.9
20260504233018 25 60 11.3 29.0 0.00 2.01 1.93 80 1013.8
20260504231535 25 63 16.1 27.4 0.00 2.01 1.93 79 1013.7
20260504230002 25 54 14.5 29.0 0.00 2.01 1.93 79 1013.6
20260504224503 25 70 14.5 27.4 0.00 2.06 1.93 78 1013.5
20260504223032 25 73 17.7 32.2 0.00 2.06 1.93 78 1013.6
20260504221552 25 109 14.5 24.1 0.00 2.06 1.93 78 1013.7
20260504220013 26 84 9.7 27.4 0.00 2.06 1.93 78 1013.6
20260504214511 26 122 12.9 25.7 0.00 2.06 1.93 77 1013.6
20260504213044 26 131 14.5 29.0 0.00 2.06 1.93 78 1013.5
20260504211518 26 48 14.5 30.6 0.00 2.06 1.93 79 1013.5
20260504210046 25 109 12.9 30.6 0.00 2.06 1.93 79 1013.8
20260504204546 25 53 16.1 32.2 0.00 2.06 1.93 79 1013.8
20260504203007 25 24 14.5 32.2 0.00 2.06 1.93 79 1013.6
20260504201537 26 90 14.5 29.0 0.00 2.06 1.93 79 1014.0
20260504200006 25 67 14.5 33.8 0.00 2.06 1.93 79 1013.9
20260504194515 26 108 14.5 27.4 0.00 2.06 1.93 79 1014.1
20260504193039 26 71 17.7 38.6 0.00 2.06 1.93 80 1014.2
20260504191511 25 85 16.1 37.0 0.00 2.06 1.93 80 1014.6
20260504190029 25 85 14.5 37.0 0.00 2.06 1.93 79 1014.8
20260504184542 26 99 16.1 30.6 0.00 2.06 1.93 78 1015.0
20260504183058 26 26 16.1 38.6 0.00 2.06 1.93 78 1015.0
20260504181517 26 67 17.7 30.6 0.00 2.06 1.93 78 1015.0
20260504180054 26 71 16.1 33.8 0.00 2.06 1.93 78 1015.0
20260504174553 26 111 11.3 33.8 0.00 2.08 1.93 80 1015.2
20260504173020 25 107 14.5 32.2 0.00 2.08 1.93 82 1015.2
20260504171549 25 57 14.5 30.6 0.84 2.08 1.93 85 1015.4